Hourly Data Report for May 16, 2022

WINNIPEG THE FORKS
MANITOBA
Current Station Operator: ECCC - MSC

49°53'18.008" N
97°07'46.007" W
230.00 m
5023262
71579
XWN

Download Data

Hourly Data (May 2022)
Hourly Data Report for May 16, 2022
TIME
LST
Temp Definition
°C
Dew Point Definition
°C
Rel Hum Definition
%
Precip. Amount Definition
mm

Wind Dir Definition
10's deg

Wind Spd Definition
km/h
Visibility Definition
km
Stn Press Definition
kPa
Hmdx Definition


Wind Chill Definition


Weather Definition


00:00 6.6 1.5 70 0.0 33 6   98.52     LegendNANA
01:00 5.7 1.7 75 0.0 32 4   98.55     LegendNANA
02:00 5.4 2.1 79 0.0 28 2   98.58     LegendNANA
03:00 5.4 1.9 78 0.0 27 3   98.62     LegendNANA
04:00 5.1 1.4 77 0.0 29 4   98.68     LegendNANA
05:00 4.7 1.2 78 0.0 27 5   98.73     LegendNANA
06:00 5.1 1.6 78 0.0 31 4   98.75     LegendNANA
07:00 6.2 1.9 74 0.0 32 7   98.81     LegendNANA
08:00 7.0 1.4 67 0.0 32 11   98.85     LegendNANA
09:00 7.5 2.0 68 0.0 33 8   98.87     LegendNANA
10:00 7.9 2.4 68 0.0 34 7   98.88     LegendNANA
11:00 8.4 2.2 65 0.0 35 6   98.93     LegendNANA
12:00 9.7 2.3 60 0.0 34 8   98.92     LegendNANA
13:00 11.6 2.9 55 0.0 2 6   98.90     LegendNANA
14:00 12.0 3.0 54 0.0 35 9   98.89     LegendNANA
15:00 12.4 3.1 53 0.0 3 8   98.87     LegendNANA
16:00 13.0 3.3 52 0.0 3 8   98.85     LegendNANA
17:00 13.7 3.6 50 0.0 2 9   98.84     LegendNANA
18:00 13.4 2.8 49 0.0 3 5   98.84     LegendNANA
19:00 11.9 3.1 55 0.0 2 7   98.86     LegendNANA
20:00 10.7 2.9 58 0.0 3 7   98.88     LegendNANA
21:00 9.8 3.0 62 0.0 5 4   98.93     LegendNANA
22:00 9.1 2.9 65 0.0 5 4   98.93     LegendNANA
23:00 8.8 3.0 67 0.0 5 4   98.91     LegendNANA

Notes on Data Quality.

Legend

  • E = Estimated
  • M = Missing
  • NA = Not Available*
  • [empty] = Indicates an unobserved value
Date modified: